Location: Halfweg
(53.1000°N, 6.6000°E)
Time: 04:45:05
(UTC+00:00)

IRS-1C Rocket - Pass Details

Date: 15 May 2026
Orbit: 798 x 805 km, 98.7° (Epoch: 6 June)

Event Time Altitude Azimuth Distance (km) Brightness Sun altitude
Exits shadow 20:27:08 - 146° (SE) 2,450 6.0 -7.8°
Reaches altitude 10° 20:27:19 10° 146° (SE) 2,382 5.9 -7.8°
Maximum altitude 20:32:28 59° 68° (ENE) 930 4.4 -8.3°
Drops below altitude 10° 20:37:40 10° 350° (N) 2,394 7.6 -8.9°
Sets 20:40:02 0° 347° (NNW) 3,328 8.6 -9.1°
